This demonstration page uses our WeatherBlox Daily Observations layout. Learn more.

Left ArrowRight Arrow

38.80484, -77.04692

Hourly Observations for June 21, 2016

Temp ( °F °C ) Dew Point ( °F °C ) Humidity (%) Winds ( mph kmh ) Pressure ( in mb ) Visibility ( mi km ) Precip ( " mm )
12:52 am 00:52 Mostly Cloudy 79 26.1 61 16.1 54 54 SW 10 17 29.95 1014 10 16 0.00 0.00
1:52 am 01:52 Mostly Cloudy 78 25.6 61 16.1 56 56 SSW 8 13 29.92 1013 10 16 0.00 0.00
2:52 am 02:52 Mostly Cloudy 77 25 61 16.1 58 58 SSW 9 15 29.92 1013 10 16 0.00 0.00
3:52 am 03:52 Mostly Cloudy 75 23.9 62 16.7 64 64 SSW 8 13 29.91 1013 10 16 0.00 0.00
4:52 am 04:52 Mostly Cloudy 76 24.4 63 17.2 64 64 S 9 15 29.89 1012 10 16 0.00 0.00
5:52 am 05:52 Mostly Cloudy 75 23.9 63 17.2 66 66 S 9 15 29.90 1012 10 16 0.00 0.00
6:52 am 06:52 Mostly Cloudy 76 24.4 65 18.3 69 69 SSW 8 13 29.91 1013 10 16 0.00 0.00
7:52 am 07:52 Mostly Cloudy 78 25.6 65 18.3 64 64 SW 8 13 29.90 1013 10 16 0.00 0.00
8:52 am 08:52 Mostly Cloudy 83 28.3 67 19.4 59 59 SW 8 13 29.91 1013 10 16 0.00 0.00
9:52 am 09:52 Mostly Cloudy 86 30 68 20 55 55 WSW 9 15 29.91 1013 10 16 0.00 0.00
10:52 am 10:52 Mostly Cloudy 88 31.1 67 19.4 50 50 W 12 19 29.89 1012 10 16 0.00 0.00
11:52 am 11:52 Mostly Cloudy 89 31.7 67 19.4 48 48 WSW 14 22 29.88 1012 10 16 0.00 0.00
12:52 pm 12:52 Mostly Cloudy 89 31.7 66 18.9 47 47 WSW 10 17 29.85 1011 10 16 0.00 0.00
1:52 pm 13:52 Mostly Cloudy 86 30 69 20.6 57 57 S 21 33 29.83 1010 10 16 0.00 0.00
2:12 pm 14:12 Mostly Cloudy with Light Rain 84 29 70 21 62 62 SSW 18 30 29.80 1009 10 16 0.00 0.00
2:32 pm 14:32 Mostly Cloudy 84 29 68 20 58 58 WSW 10 17 29.83 1010 10 16 0.00 0.00
2:52 pm 14:52 Cloudy 76 24.4 66 18.9 72 72 NE 15 24 29.87 1012 10 16 0.00 0.03
3:18 pm 15:18 Cloudy with Light Rain 73 23 66 19 78 78 NNE 20 31 29.85 1011 3 5 0.00 0.00
3:20 pm 15:20 Cloudy with Rain 73 23 66 19 78 78 NNE 18 30 29.85 1011 3 4 0.00 0.00
3:25 pm 15:25 Cloudy with Rain 73 22.8 67 19.4 81 81 NE 15 24 29.83 1010 5 8 0.06 1.52
3:35 pm 15:35 Cloudy with Thunderstorms 73 22.8 68 20 84 84 NNE 12 19 29.83 1010 9 14 0.08 2.03
3:52 pm 15:52 Cloudy with Thunderstorms 72 22.2 68 20 87 87 NNE 5 7 29.87 1011 10 16 0.08 2.03
4:02 pm 16:02 Cloudy with Strong Thunderstorms 72 22.2 68 20 87 87 WSW 10 17 29.88 1012 2 3 0.04 1.02
4:18 pm 16:18 Cloudy with Strong Thunderstorms 72 22 70 21 94 94 VRB 5 7 29.83 1010 3 4 0.00 0.00
4:21 pm 16:21 Cloudy with Thunderstorms 72 22.2 70 21.1 94 94 VRB 7 11 29.83 1010 5 8 0.27 6.86
4:25 pm 16:25 Mostly Cloudy with Light Rain 73 22.8 70 21.1 90 90 SE 5 7 29.83 1010 6 10 0.28 7.11
4:52 pm 16:52 Mostly Cloudy 73 22.8 69 20.6 87 87 Calm 29.83 1010 10 16 0.28 7.11
5:45 pm 17:45 Mostly Cloudy with Thunderstorms 74 23.3 70 21.1 88 88 ESE 5 7 29.83 1010 10 16 0.00 0.03
5:52 pm 17:52 Cloudy with Thunderstorms 73 22.8 70 21.1 90 90 Calm 29.84 1010 3 5 0.01 0.25
5:54 pm 17:54 Cloudy with Strong Thunderstorms 73 23 70 21 89 89 NNE 7 11 29.83 1010 2 3 0.00 0.00
6:09 pm 18:09 Cloudy with Strong Thunderstorms 73 22.8 71 21.7 94 94 NW 14 22 29.85 1011 1 2 0.29 7.37
6:17 pm 18:17 Cloudy with Strong Thunderstorms 72 22.2 70 21.1 94 94 NNW 10 17 29.83 1010 1 1 0.42 10.67
6:20 pm 18:20 Cloudy with Strong Thunderstorms 72 22 70 21 94 94 N 7 11 29.83 1010 1 1 0.00 0.00
6:24 pm 18:24 Mostly Cloudy with Thunderstorms 72 22 70 21 94 94 N 7 11 29.83 1010 1 1 0.00 0.00
6:26 pm 18:26 Mostly Cloudy with Thunderstorms 73 23 72 22 94 94 NNE 8 13 29.80 1009 3 5 0.00 0.00
6:34 pm 18:34 Mostly Cloudy with Light Rain 73 23 70 21 89 89 NNE 7 11 29.80 1009 10 16 0.00 0.00
6:52 pm 18:52 Mostly Cloudy 73 22.8 71 21.7 94 94 Calm 29.82 1010 10 16 0.62 15.75
7:11 pm 19:11 Mostly Cloudy with Thunderstorms 74 23.3 71 21.7 91 91 Calm 29.83 1010 10 16 0.00 0.00
7:32 pm 19:32 Mostly Cloudy 73 23 70 21 89 89 WNW 3 6 29.83 1010 10 16 0.00 0.00
7:52 pm 19:52 Mostly Cloudy 74 23.3 71 21.7 91 91 SW 3 6 29.82 1010 10 16 0.00 0.03
8:52 pm 20:52 Mostly Cloudy 74 23.3 72 22.2 94 94 S 9 15 29.80 1009 10 16 0.00 0.00
9:52 pm 21:52 Mostly Cloudy 74 23.3 71 21.7 91 91 S 3 6 29.84 1011 10 16 0.00 0.00
10:52 pm 22:52 Partly Cloudy 74 23.3 71 21.7 91 91 SW 7 11 29.85 1011 10 16 0.00 0.00
11:52 pm 23:52 Mostly Cloudy 73 22.8 71 21.7 94 94 SW 7 11 29.84 1011 10 16 0.00 0.00

Powered by AerisWeather